Regional Weather Roundup
Issued by NWS

Home | Current Version | Previous Version | Text Only | Print | Product List | Glossary On
Versions: 1 2 3 4 5 6 7 8 9 10 11 12 13 14 15 16 17 18 19 20 21 22 23 24 25 26 27 28
000
ASUS45 KBOU 270407
RWRCO

WEATHER ROUNDUP FOR COLORADO
NATIONAL WEATHER SERVICE DENVER/BOULDER CO
1000 PM MDT TUE JUL 26 2016

NOTE: "FAIR" INDICATES FEW OR NO CLOUDS BELOW 12000 FEET WITH NO
SIGNIFICANT WEATHER AND/OR OBSTRUCTIONS TO VISIBILITY.

COZ001>005-013-030-031-270500-
...NORTHWEST COLORADO...

CITY           SKY/WX    TMP DP  RH WIND       PRES   REMARKS
CRAIG          FAIR      67  43  41 SE5       30.24S
HAYDEN         FAIR      64  39  39 SE9       30.28R
MEEKER         FAIR      64  47  53 E5        30.26R
MOUNT WERNER   NOT AVBL
STEAMBOAT SPGS FAIR      60  41  48 CALM      30.31R
WALDEN         FAIR      54  37  54 S3        30.43R
$$

COZ006>008-011-270500-
...WEST CENTRAL VALLEYS...

CITY           SKY/WX    TMP DP  RH WIND       PRES   REMARKS
GRAND JUNCTION FAIR      83  39  21 S8        30.11R
MONTROSE       FAIR      74  45  35 S6        30.21S
EAGLE          FAIR      68  39  34 E6        30.31F
RIFLE          FAIR      76  42  29 SE13      30.19R
DELTA          FAIR      83  37  19 E10       30.16R
NUCLA          FAIR      73  37  27 W6        30.25R
$$

COZ017>023-064>068-270500-
...SOUTHWEST COLORADO...

CITY           SKY/WX    TMP DP  RH WIND       PRES   REMARKS
DURANGO        MOCLDY    66  52  60 N7        30.30R
CORTEZ         FAIR      77  44  30 N3        30.20R
PAGOSA SPRINGS FAIR      63  48  58 CALM      30.39R
TELLURIDE      FAIR      64  39  38 SE8       30.50R
WOLF CREEK PAS FAIR      46  37  71 NE10      30.74R
$$

COZ009-010-012-014-032>034-037-058>063-270500-
...CENTRAL COLORADO...

CITY           SKY/WX    TMP DP  RH WIND       PRES   REMARKS
ASPEN          FAIR      57  43  59 SW10      30.40R
BUENA VISTA    FAIR      56  41  56 NW5       30.44R
COPPER MTN     FAIR      54  32  43 CALM      30.73S
BERTHOUD PASS  FAIR      45  32  61 NW8       30.75R
COTTONWOOD PAS FAIR      63  32  31 CALM      30.58S
GUNNISON       FAIR      66  39  37 NE6       30.41S
KREMMLING      FAIR      55  41  58 CALM      30.39S
LEADVILLE      FAIR      51  33  50 CALM      30.57R
MONARCH PASS   FAIR      50  36  57 E15       30.82S
SALIDA         FAIR      63  46  54 W3        30.47R
SUNLIGHT       FAIR      55  36  47 MISG      30.64F
WILKERSON PASS FAIR      52  34  50 W7        30.69S
$$

COZ069>075-270500-
...SAN LUIS VALLEY/SANGRE DE CRISTO MOUNTAINS...

CITY           SKY/WX    TMP DP  RH WIND       PRES   REMARKS
ALAMOSA        FAIR      65  46  50 CALM      30.37R
LA VETA PASS   MOCLDY    59  37  44 E3        30.58S
SAGUACHE       MOCLDY    64  45  48 N7        30.41S
$$

COZ035-036-038>040-270500-
...NORTHERN COLORADO FRONT RANGE...

CITY           SKY/WX    TMP DP  RH WIND       PRES   REMARKS
DENVER INTL AP MOCLDY    71  44  37 SE6       30.15R
DMNS CITY PARK   N/A     77  39  25 SW2       30.14S
AURORA         MOCLDY    75  41  29 W1        30.18R
FRONT RANGE AP NOT AVBL
ERIE MUNI ARPT FAIR      75  37  24 SE3       30.12S
BOULDER MUN AP FAIR      79  36  21 SW10      30.13R
CENTENNIAL     MOCLDY    76  37  24 SW6       30.19S
BROOMFIELD     PTCLDY    73  37  27 SW7       30.17R
LONGMONT       FAIR      74  42  31 NW3       30.13R
$$

COZ041-046-047-076>085-087-088-270500-
...PIKES PEAK/PALMER DIVIDE AND SOUTHERN FOOTHILLS...

CITY           SKY/WX    TMP DP  RH WIND       PRES   REMARKS
COLO. SPRINGS  MOCLDY    75  46  35 NW8       30.24S
A. F. ACADEMY  MOCLDY    65  46  49 N7        30.27R
SCHRIEVER AFB  NOT AVBL
ELLICOTT       FAIR     N/A N/A N/A NE5       30.23R
FALCON         NOT AVBL
FORT CARSON    CLOUDY    77  39  25 W8        30.19S
LIMON          NOT AVBL
MONUMENT HILL  FAIR      61  45  55 W8        30.32S
TRINIDAD       NOT AVBL
$$

COZ042>045-048>051-090-091-270500-
...NORTHEAST COLORADO...

CITY           SKY/WX    TMP DP  RH WIND       PRES   REMARKS
GREELEY ARPT   FAIR      73  50  43 SE12      30.11R
AKRON          FAIR      69  52  54 S13       30.10S
BURLINGTON     FAIR      68  58  70 E12       30.12R
WRAY           NOT AVBL
STERLING       FAIR      66  54  63 N10       30.06R
HOLYOKE        FAIR      70  59  68 W3        30.05R
FORT MORGAN    FAIR      69  51  52 S8        30.10R
$$

COZ086-089-092>099-270500-
...SOUTHEAST COLORADO...

CITY           SKY/WX    TMP DP  RH WIND       PRES   REMARKS
PUEBLO         FAIR      79  50  36 NW7       30.11R
LA JUNTA       FAIR      81  56  42 SE8G22    30.08R
LAMAR          FAIR      80  67  64 NE16G23   30.09R
SPRINGFIELD      N/A     76  63  64 SE14      30.12R
$$




USA.gov is the U.S. government's official web portal to all federal, state and local government web resources and services.